Barking Sands, HI

2:12 PM HST on May 20, 2018 (GMT -1000)
Barking Sands PMRF

Weather History for PHBK - April, 2014

Change the Weather History Date:

Thursday, April 24, 2014

  Actual Average Record
Temperature  
Mean Temperature 78 °F -  
Max Temperature 81 °F 84 °F 100 °F (2017)
Min Temperature 75 °F 62 °F 58 °F (1969)
Cooling Degree Days 13    
Growing Degree Days 28 (Base 50)    
Moisture  
Dew Point 66 °F    
Average Humidity 67    
Maximum Humidity 76    
Minimum Humidity 58    
Precipitation  
Precipitation 0.00 in - - ()
Sea Level Pressure  
Sea Level Pressure 30.11 in    
Wind  
Wind Speed 3 mph (WNW)    
Max Wind Speed 10 mph    
Max Gust Speed -    
Visibility 10 miles    
Events      
Averages and records for this station are not official NWS values.
T = Trace of Precipitation, MM = Missing Value Source: NWS Daily Summary

Daily Weather History Graph

Daily Weather History Graph

Search for Another Location

Airport or City:

Astronomy

Apr. 24, 2014 Rise Set
Actual Time 6:12 AM HST 7:02 PM HST
Civil Twilight 5:48 AM HST 7:25 PM HST
Nautical Twilight 5:21 AM HST 7:53 PM HST
Astronomical Twilight 4:53 AM HST 8:20 PM HST
Moon 2:55 AM HST (4/24) 3:02 PM HST (4/24)
Length of Visible Light 13h 36m
Length of Day
12h 50m
Waning Crescent, 22% of the Moon is Illuminated
Apr 24
Waning Crescent
Apr 28
New
May 6
First Quarter
May 14
Full
May 21
Last Quarter

Hourly Weather History & Observations

Time (HST) Temp. Heat Index Dew Point Humidity Pressure Visibility Wind Dir Wind Speed Gust Speed Precip Events Conditions
12:56 AM - - - N/A% 30.11 in 10.0 mi Calm Calm - N/A   Clear
1:56 AM - - - N/A% 30.09 in 10.0 mi ESE 3.5 mph - N/A   Clear
2:56 AM - - - N/A% 30.08 in 10.0 mi NNE 4.6 mph - N/A   Clear
3:56 AM - - - N/A% 30.09 in 10.0 mi Calm Calm - N/A   Overcast
4:56 AM - - - N/A% 30.09 in 10.0 mi ENE 3.5 mph - N/A   Clear
5:56 AM - - - N/A% 30.10 in 10.0 mi East 3.5 mph - N/A   Clear
6:56 AM - - - N/A% 30.12 in 10.0 mi East 3.5 mph - N/A   Clear
7:56 AM - - - N/A% 30.13 in 10.0 mi Calm Calm - N/A   Clear
8:56 AM 77.0 °F - 64.9 °F 66% 30.14 in 10.0 mi WSW 5.8 mph - N/A   Mostly Cloudy
9:56 AM 77.0 °F - 66.9 °F 71% 30.15 in 10.0 mi WSW 6.9 mph - N/A   Mostly Cloudy
10:56 AM 78.1 °F - 66.9 °F 68% 30.14 in 10.0 mi NW 6.9 mph - N/A   Partly Cloudy
11:56 AM 79.0 °F - 64.9 °F 62% 30.13 in 10.0 mi West 4.6 mph - N/A   Scattered Clouds
12:56 PM 81.0 °F 82.7 °F 64.9 °F 58% 30.11 in 10.0 mi WNW 6.9 mph - N/A   Mostly Cloudy
1:56 PM 81.0 °F 83.0 °F 66.0 °F 60% 30.08 in 10.0 mi NW 10.4 mph - N/A   Mostly Cloudy
2:56 PM 81.0 °F 83.0 °F 66.0 °F 60% 30.05 in 10.0 mi Variable 3.5 mph - N/A   Mostly Cloudy
3:56 PM 80.1 °F 82.1 °F 66.0 °F 62% 30.05 in 10.0 mi West 8.1 mph - N/A   Mostly Cloudy
4:56 PM 80.1 °F 82.3 °F 66.9 °F 64% 30.05 in 10.0 mi NNW 6.9 mph - N/A   Scattered Clouds
5:56 PM 78.1 °F - 66.9 °F 68% 30.06 in 10.0 mi Calm Calm - N/A   Mostly Cloudy
6:56 PM 77.0 °F - 66.9 °F 71% 30.08 in 10.0 mi WSW 5.8 mph - N/A   Mostly Cloudy
7:56 PM 77.0 °F - 66.9 °F 71% 30.10 in 10.0 mi North 4.6 mph - N/A   Mostly Cloudy
8:56 PM 75.0 °F - 66.9 °F 76% 30.14 in 10.0 mi SSE 3.5 mph - N/A   Mostly Cloudy
9:56 PM 75.9 °F - 66.0 °F 71% 30.14 in 10.0 mi Calm Calm - N/A   Mostly Cloudy
10:56 PM 75.0 °F - 66.9 °F 76% 30.15 in 10.0 mi NW 5.8 mph - N/A   Clear
11:56 PM - - - N/A% 30.14 in 10.0 mi West 3.5 mph - N/A   Clear